Flag for Netherlands Weather past 2 weeks in Amsterdam, Netherlands

Now
57 °F

Passing clouds.


Feels Like: 54 °F
Forecast: 46 / 58 °F
Wind: 13 mph from Northwest

Location: Amsterdam Schiphol Airport

Current Time: May 25, 2015 at 2:35:24 PM

Latest Report: May 25, 2015 at 1:55 PM


Visibility: N/A

Pressure: 30.01 "Hg

Humidity: 67%

Dew point: 46 °F

Location of AmsterdamLocation

Historic Weather in Amsterdam — Graph

°F

Amsterdam temperature yesterday

Maximum temperature yesterday: 63 °F (at 1:25 PM)
Minimum temperature yesterday: 41 °F (at 2:25 AM)
Average temperature yesterday: 53 °F

Past Weeks' High & Low Weather Summary

 TemperatureHumidityPressure
High75 °F (May 11, 1:55 PM)100% (May 16, 11:25 AM)30.33 "Hg (May 16, 11:25 AM)
Low41 °F (May 24, 2:25 AM)30% (May 24, 5:25 PM)29.56 "Hg (May 19, 4:25 AM)
Average54 °F73%30.06 "Hg
* Reported May 10 1:25 PM — May 25 1:25 PM, Amsterdam, Weather by CustomWeather, © 2015

Note: Actual official high and low records may vary slightly from our data, if they occured in-between our weather recording intervals... More about our weather records

Advertising

Amsterdam weather history for previous 24 hours

 ConditionsComfort  
Time TempWeatherWind HumidityBarometerVisibility
1:25 PM
Mon, May 25
59 °FPassing clouds.12 mph63%30.01 "HgN/A
12:55 PM57 °FPassing clouds.13 mph63%30.01 "HgN/A
12:25 PM59 °FPassing clouds.9 mph59%30.01 "HgN/A
11:55 AM57 °FPassing clouds.9 mph63%30.01 "HgN/A
11:25 AM57 °FPassing clouds.7 mph63%30.01 "HgN/A
10:55 AM57 °FPassing clouds.6 mph63%30.01 "HgN/A
10:25 AM55 °FPassing clouds.6 mph67%30.01 "HgN/A
9:55 AM55 °FPassing clouds.6 mph67%30.01 "HgN/A
9:25 AM54 °FPassing clouds.7 mph72%30.01 "HgN/A
8:55 AM54 °FPassing clouds.8 mph77%30.01 "HgN/A
8:25 AM54 °FPassing clouds.9 mph77%30.01 "HgN/A
7:55 AM52 °FSunny.10 mph82%30.01 "Hg10 mi
7:25 AM54 °FSunny.7 mph77%30.01 "Hg10 mi
6:55 AM52 °FPassing clouds.5 mph82%30.01 "HgN/A
6:25 AM52 °FClear.5 mph77%30.01 "Hg10 mi
5:55 AM52 °FPassing clouds.5 mph77%30.01 "HgN/A
5:25 AM52 °FPassing clouds.3 mph82%30.01 "HgN/A
4:55 AM54 °FPassing clouds.6 mph77%30.01 "HgN/A
4:25 AM54 °FPassing clouds.7 mph94%30.01 "HgN/A
3:55 AM54 °FPartly cloudy.8 mph94%30.01 "Hg4 mi
3:25 AM54 °FFog.6 mph100%30.01 "Hg3 mi
2:55 AM54 °FPartly cloudy.8 mph100%30.01 "Hg4 mi
2:25 AM54 °FPartly cloudy.6 mph100%30.01 "Hg4 mi
1:55 AM54 °FFog.6 mph100%30.01 "Hg3 mi
1:25 AM54 °FPartly cloudy.6 mph100%30.04 "Hg4 mi
12:55 AM54 °FPartly cloudy.7 mph100%30.04 "Hg2 mi
12:25 AM54 °FPartly cloudy.6 mph94%30.04 "Hg4 mi
11:55 PM
Sun, May 24
54 °FPartly cloudy.6 mph94%30.04 "HgN/A
11:25 PM54 °FPartly cloudy.5 mph94%30.04 "HgN/A
10:55 PM54 °FPartly cloudy.9 mph88%30.04 "HgN/A
10:25 PM54 °FPassing clouds.6 mph88%30.04 "HgN/A
9:55 PM54 °FLight rain. Passing clouds.9 mph88%30.04 "HgN/A
9:25 PM54 °FLight rain. Passing clouds.10 mph88%30.04 "HgN/A
8:55 PM55 °FLight rain. Passing clouds.12 mph72%30.04 "HgN/A
8:25 PM57 °FLight rain. Partly sunny.10 mph63%30.04 "HgN/A
7:55 PM57 °FScattered clouds.12 mph63%30.07 "HgN/A
7:25 PM59 °FPassing clouds.10 mph63%30.07 "HgN/A
6:55 PM59 °FPassing clouds.12 mph59%30.07 "HgN/A
6:25 PM61 °FPassing clouds.12 mph55%30.07 "HgN/A
5:55 PM63 °FPassing clouds.13 mph42%30.07 "HgN/A
5:25 PM63 °FPassing clouds.10 mph30%30.07 "HgN/A
4:55 PM63 °FPassing clouds.12 mph39%30.07 "HgN/A
4:25 PM63 °FPassing clouds.14 mph45%30.07 "HgN/A
3:55 PM63 °FPassing clouds.9 mph52%30.07 "HgN/A
3:25 PM63 °FPassing clouds.9 mph52%30.07 "HgN/A
2:55 PM63 °FSunny.6 mph52%30.09 "Hg10 mi
2:25 PM63 °FSunny.6 mph49%30.09 "Hg10 mi
Weather by CustomWeather, © 2015

See weather overviewHow to use our weather pages